• In Czech Republic
  • List of Countries
  • For 7 days
  • Water Temperature
  • Satellite Maps
  • Weather Map
  • Weather Widgets
  • user-avatar
    Login

    Hourly Weather Herāt

    Today, 21 October, Saturday

    Time Temperature Precipitation Wind Pressure Humidity
    00:00 +13°C° 0 mm 0 mps 678 mmHg 16%
    01:00 +13°C° 0 mm 0 mps 678 mmHg 16%
    02:00 +12°C° 0 mm 0 mps 678 mmHg 16%
    03:00 +12°C° 0 mm 0 mps 678 mmHg 17%
    04:00 +12°C° 0 mm 1 mps 678 mmHg 19%
    05:00 +13°C° 0 mm 1 mps 679 mmHg 18%
    06:00 +14°C° 0 mm 1 mps 679 mmHg 18%
    07:00 +14°C° 0 mm 1 mps 679 mmHg 18%
    08:00 +17°C° 0 mm 2 mps 680 mmHg 16%
    09:00 +19°C° 0 mm 2 mps 680 mmHg 13%
    10:00 +21°C° 0 mm 2 mps 681 mmHg 11%
    11:00 +23°C° 0 mm 2 mps 681 mmHg 11%
    12:00 +24°C° 0 mm 3 mps 681 mmHg 11%
    13:00 +24°C° 0 mm 3 mps 680 mmHg 11%
    14:00 +23°C° 0 mm 4 mps 680 mmHg 12%
    15:00 +22°C° 0 mm 4 mps 680 mmHg 13%
    16:00 +22°C° 0 mm 4 mps 680 mmHg 14%
    17:00 +20°C° 0 mm 4 mps 680 mmHg 16%
    18:00 +19°C° 0 mm 4 mps 680 mmHg 19%
    19:00 +17°C° 0 mm 4 mps 680 mmHg 21%
    20:00 +17°C° 0 mm 4 mps 680 mmHg 23%
    21:00 +16°C° 0 mm 3 mps 680 mmHg 24%
    22:00 +14°C° 0 mm 3 mps 680 mmHg 25%
    23:00 +14°C° 0 mm 3 mps 679 mmHg 27%

    Tomorrow, 22 October, Sunday

    Time Temperature Precipitation Wind Pressure Humidity
    00:00 +14°C° 0 mm 2 mps 679 mmHg 28%
    01:00 +14°C° 0 mm 2 mps 679 mmHg 29%
    02:00 +13°C° 0 mm 2 mps 678 mmHg 29%
    03:00 +13°C° 0 mm 2 mps 678 mmHg 30%
    04:00 +12°C° 0 mm 2 mps 678 mmHg 31%
    05:00 +13°C° 0 mm 2 mps 678 mmHg 30%
    06:00 +13°C° 0 mm 2 mps 678 mmHg 29%
    07:00 +13°C° 0 mm 2 mps 678 mmHg 28%
    08:00 +15°C° 0 mm 1 mps 679 mmHg 24%
    09:00 +18°C° 0 mm 1 mps 679 mmHg 21%
    10:00 +20°C° 0 mm 1 mps 680 mmHg 17%
    11:00 +20°C° 0 mm 2 mps 679 mmHg 16%
    12:00 +21°C° 0 mm 2 mps 679 mmHg 14%
    13:00 +23°C° 0 mm 2 mps 678 mmHg 13%
    14:00 +23°C° 0 mm 2 mps 678 mmHg 13%
    15:00 +23°C° 0 mm 2 mps 678 mmHg 13%
    16:00 +23°C° 0 mm 2 mps 678 mmHg 13%
    17:00 +21°C° 0 mm 2 mps 678 mmHg 15%
    18:00 +19°C° 0 mm 2 mps 678 mmHg 17%
    19:00 +18°C° 0 mm 1 mps 678 mmHg 19%
    20:00 +18°C° 0 mm 1 mps 678 mmHg 20%
    21:00 +16°C° 0 mm 1 mps 678 mmHg 20%
    22:00 +16°C° 0 mm 1 mps 678 mmHg 20%
    23:00 +15°C° 0 mm 1 mps 677 mmHg 20%

    Day after tomorrow, 23 October, Monday

    Time Temperature Precipitation Wind Pressure Humidity
    00:00 +15°C° 0 mm 1 mps 677 mmHg 21%
    01:00 +15°C° 0 mm 1 mps 677 mmHg 21%
    02:00 +14°C° 0 mm 1 mps 677 mmHg 21%
    03:00 +14°C° 0 mm 2 mps 677 mmHg 21%
    04:00 +14°C° 0 mm 2 mps 677 mmHg 21%
    05:00 +14°C° 0 mm 2 mps 677 mmHg 20%
    06:00 +15°C° 0 mm 2 mps 677 mmHg 19%
    07:00 +16°C° 0 mm 2 mps 678 mmHg 19%
    08:00 +18°C° 0 mm 2 mps 678 mmHg 16%
    09:00 +20°C° 0 mm 2 mps 679 mmHg 14%
    10:00 +24°C° 0 mm 2 mps 680 mmHg 12%
    11:00 +25°C° 0 mm 3 mps 680 mmHg 11%
    12:00 +25°C° 0 mm 3 mps 679 mmHg 11%
    13:00 +26°C° 0 mm 4 mps 679 mmHg 10%
    14:00 +26°C° 0 mm 4 mps 679 mmHg 10%
    15:00 +26°C° 0 mm 4 mps 679 mmHg 10%
    16:00 +26°C° 0 mm 4 mps 680 mmHg 10%
    17:00 +24°C° 0 mm 3 mps 680 mmHg 12%
    18:00 +21°C° 0 mm 2 mps 680 mmHg 13%
    19:00 +20°C° 0 mm 1 mps 680 mmHg 15%
    20:00 +19°C° 0 mm 1 mps 681 mmHg 16%
    21:00 +18°C° 0 mm 2 mps 681 mmHg 16%
    22:00 +17°C° 0 mm 2 mps 681 mmHg 16%
    23:00 +17°C° 0 mm 2 mps 681 mmHg 17%

    24 October, Tuesday

    Time Temperature Precipitation Wind Pressure Humidity
    00:00 +17°C° 0 mm 2 mps 681 mmHg 17%
    01:00 +16°C° 0 mm 2 mps 682 mmHg 17%
    02:00 +16°C° 0 mm 3 mps 682 mmHg 18%
    03:00 +16°C° 0 mm 3 mps 682 mmHg 19%
    04:00 +14°C° 0 mm 3 mps 682 mmHg 19%
    05:00 +16°C° 0 mm 3 mps 682 mmHg 19%
    06:00 +16°C° 0 mm 3 mps 683 mmHg 19%
    07:00 +16°C° 0 mm 3 mps 683 mmHg 19%
    08:00 +18°C° 0 mm 3 mps 683 mmHg 16%
    09:00 +21°C° 0 mm 3 mps 684 mmHg 14%
    10:00 +24°C° 0 mm 3 mps 685 mmHg 11%
    11:00 +25°C° 0 mm 2 mps 684 mmHg 10%
    12:00 +26°C° 0 mm 2 mps 684 mmHg 9%
    13:00 +27°C° 0 mm 1 mps 683 mmHg 8%
    14:00 +27°C° 0 mm 2 mps 683 mmHg 8%
    15:00 +27°C° 0 mm 2 mps 683 mmHg 8%
    16:00 +27°C° 0 mm 2 mps 682 mmHg 8%
    17:00 +25°C° 0 mm 2 mps 682 mmHg 10%
    18:00 +22°C° 0 mm 1 mps 682 mmHg 11%
    19:00 +20°C° 0 mm 1 mps 682 mmHg 13%
    20:00 +20°C° 0 mm 1 mps 682 mmHg 13%
    21:00 +19°C° 0 mm 1 mps 682 mmHg 13%
    22:00 +19°C° 0 mm 1 mps 682 mmHg 13%
    23:00 +19°C° 0 mm 1 mps 682 mmHg 13%

    25 October, Wednesday

    Time Temperature Precipitation Wind Pressure Humidity
    00:00 +18°C° 0 mm 1 mps 682 mmHg 13%
    01:00 +18°C° 0 mm 1 mps 681 mmHg 13%
    02:00 +16°C° 0 mm 1 mps 681 mmHg 13%
    03:00 +16°C° 0 mm 1 mps 681 mmHg 13%
    04:00 +16°C° 0 mm 1 mps 681 mmHg 14%
    05:00 +16°C° 0 mm 1 mps 682 mmHg 13%
    06:00 +18°C° 0 mm 1 mps 682 mmHg 13%
    07:00 +18°C° 0 mm 1 mps 683 mmHg 13%
    08:00 +21°C° 0 mm 1 mps 683 mmHg 11%
    09:00 +23°C° 0 mm 1 mps 684 mmHg 10%
    10:00 +25°C° 0 mm 1 mps 685 mmHg 9%
    11:00 +26°C° 0 mm 2 mps 685 mmHg 9%
    12:00 +27°C° 0 mm 2 mps 684 mmHg 8%
    13:00 +28°C° 0 mm 3 mps 684 mmHg 8%
    14:00 +27°C° 0 mm 3 mps 684 mmHg 9%
    15:00 +27°C° 0 mm 4 mps 684 mmHg 9%
    16:00 +26°C° 0 mm 4 mps 684 mmHg 9%
    17:00 +25°C° 0 mm 4 mps 684 mmHg 11%
    18:00 +22°C° 0 mm 4 mps 684 mmHg 13%
    19:00 +20°C° 0 mm 3 mps 684 mmHg 14%
    20:00 +19°C° 0 mm 3 mps 684 mmHg 15%
    21:00 +19°C° 0 mm 3 mps 684 mmHg 16%
    22:00 +18°C° 0 mm 3 mps 684 mmHg 16%
    23:00 +18°C° 0 mm 3 mps 684 mmHg 17%

    26 October, Thursday

    Time Temperature Precipitation Wind Pressure Humidity
    00:00 +17°C° 0 mm 2 mps 684 mmHg 17%
    01:00 +16°C° 0 mm 2 mps 683 mmHg 18%
    02:00 +16°C° 0 mm 2 mps 683 mmHg 18%
    03:00 +16°C° 0 mm 2 mps 683 mmHg 19%
    04:00 +15°C° 0 mm 2 mps 683 mmHg 19%
    05:00 +15°C° 0 mm 2 mps 683 mmHg 19%
    06:00 +16°C° 0 mm 2 mps 684 mmHg 19%
    07:00 +16°C° 0 mm 2 mps 684 mmHg 18%
    08:00 +18°C° 0 mm 3 mps 684 mmHg 16%
    09:00 +20°C° 0 mm 3 mps 685 mmHg 13%
    10:00 +24°C° 0 mm 3 mps 685 mmHg 11%
    11:00 +25°C° 0 mm 4 mps 685 mmHg 10%
    12:00 +26°C° 0 mm 5 mps 684 mmHg 9%
    13:00 +26°C° 0 mm 5 mps 684 mmHg 8%
    14:00 +26°C° 0 mm 6 mps 684 mmHg 9%
    15:00 +24°C° 0 mm 6 mps 684 mmHg 9%
    16:00 +24°C° 0 mm 7 mps 683 mmHg 9%
    17:00 +22°C° 0 mm 6 mps 683 mmHg 11%
    18:00 +20°C° 0 mm 5 mps 683 mmHg 12%
    19:00 +19°C° 0 mm 5 mps 684 mmHg 13%
    20:00 +18°C° 0 mm 4 mps 684 mmHg 14%
    21:00 +18°C° 0 mm 4 mps 684 mmHg 15%
    22:00 +17°C° 0 mm 3 mps 683 mmHg 15%
    23:00 +17°C° 0 mm 3 mps 683 mmHg 16%
    Show more